Location: Battersea Observatory
(44.4318°N, 76.3841°W)
Time: 22:02:48
(UTC-04:00)

Tiros 1 despin weight - Pass Details

Date: 22 January 2022
Orbit: 592 x 639 km, 48.2° (Epoch: 25 May)

Event Time Altitude Azimuth Distance (km) Brightness Sun altitude
Rises 20:23:26 0° 274° (W) 2,908 ? -35.8°
Reaches altitude 10° 20:25:48 10° 279° (W) 2,009 ? -36.3°
Enters shadow 20:27:03 18° 284° (WNW) 1,551 ? -36.5°
Maximum altitude 20:30:20 53° 357° (N) 780 - -37.1°
Drops below altitude 10° 20:34:56 10° 75° (ENE) 2,030 - -37.9°
Sets 20:37:19 0° 80° (E) 2,942 - -38.3°
